This is the latest recevied weather packets stored in our database for station/object N3SBK. If no packets are shown the sender has not sent any weather packets the latest 10 day(s).
| Time | Temp. | Humidity | Pressure | Rain* | Wind** | Luminosity | Snow |
|---|---|---|---|---|---|---|---|
| 1787493490 | 17.78° C | 91% | 1005 hPa | 0 mm | - | 41 W/m² | - |
| 1787493186 | 17.78° C | 90% | 1005 hPa | 0 mm | - | 32 W/m² | - |
| 1787492881 | 17.78° C | 91% | 1004.6 hPa | 0 mm | - | 41 W/m² | - |
| 1787492577 | 17.78° C | 91% | 1004.7 hPa | 0 mm | - | 106 W/m² | - |
| 1787492273 | 17.78° C | 92% | 1004.7 hPa | 0 mm | - | 74 W/m² | - |
| 1787491968 | 17.78° C | 92% | 1004.8 hPa | 0 mm | - | 79 W/m² | - |
| 1787491664 | 17.78° C | 91% | 1004.5 hPa | 0 mm | - | 19 W/m² | - |
| 1787491364 | 17.78° C | 92% | 1004.6 hPa | 0 mm | - | 36 W/m² | - |
| 1787491060 | 17.78° C | 92% | 1004.6 hPa | 0 mm | - | 29 W/m² | - |
| 1787490756 | 17.22° C | 94% | 1004.5 hPa | 0 mm | - | 96 W/m² | - |
| 1787490455 | 17.22° C | 94% | 1004.4 hPa | 0 mm | - | 64 W/m² | - |
| 1787490153 | 17.22° C | 95% | 1004.3 hPa | 0 mm | - | 52 W/m² | - |
| 1787489854 | 17.22° C | 95% | 1004.3 hPa | 0 mm | - | 43 W/m² | - |
| 1787489549 | 17.22° C | 95% | 1004.2 hPa | 0 mm | - | 14 W/m² | - |
| 1787489245 | 17.22° C | 95% | 1004.3 hPa | 0 mm | - | 27 W/m² | - |
| 1787488941 | 17.22° C | 96% | 1004.3 hPa | 0 mm | - | 22 W/m² | - |
| 1787488636 | 17.22° C | 96% | 1004.2 hPa | 0 mm | - | 32 W/m² | - |
| 1787488333 | 17.22° C | 96% | 1004.2 hPa | 0 mm | - | 15 W/m² | - |
| 1787488029 | 16.67° C | 96% | 1004.1 hPa | 0 mm | - | 22 W/m² | - |
| 1787487726 | 16.67° C | 95% | 1004.3 hPa | 0 mm | - | 18 W/m² | - |
| 1787487422 | 16.67° C | 96% | 1004.3 hPa | 0 mm | - | 12 W/m² | - |
| 1787487118 | 16.67° C | 96% | 1004 hPa | 0 mm | - | 11 W/m² | - |
| 1787486817 | 16.67° C | 96% | 1004.1 hPa | 0 mm | - | 19 W/m² | - |
| 1787486512 | 17.22° C | 96% | 1004 hPa | 0 mm | - | 17 W/m² | - |
| 1787486211 | 16.67° C | 96% | 1004.1 hPa | 0 mm | - | 35 W/m² | - |
* Rain latest hour (hover to see other rain measurements)
** Current wind speed in m/s (hover to see current wind gust speed)